This is the latest recevied weather packets stored in our database for station/object I8ZSE-10. If no packets are shown the sender has not sent any weather packets the latest 10 day(s).
| Time | Temp. | Humidity | Pressure | Rain* | Wind** | Luminosity | Snow |
|---|---|---|---|---|---|---|---|
| 1788162630 | 26.67° C | 66% | - | 0 mm | - | - | - |
| 1788162030 | 26.67° C | 70% | - | 0 mm | - | - | - |
| 1788161430 | 26.11° C | 70% | - | 0 mm | - | - | - |
| 1788160831 | 25.56° C | 73% | - | 0 mm | - | - | - |
| 1788160230 | 25.56° C | 75% | - | 0 mm | - | - | - |
| 1788159646 | 25.56° C | 76% | - | 0 mm | - | - | - |
| 1788159030 | 25.56° C | 75% | - | 0 mm | - | - | - |
| 1788158430 | 25.56° C | 74% | - | 0 mm | - | - | - |
| 1788157830 | 25.56° C | 74% | - | 0 mm | - | - | - |
| 1788157230 | 25.56° C | 73% | - | 0 mm | - | - | - |
| 1788156630 | 24.44° C | 77% | - | 0 mm | - | - | - |
| 1788156030 | 23.89° C | 79% | - | 0 mm | - | - | - |
| 1788155430 | 23.89° C | 78% | - | 0 mm | - | - | - |
| 1788154830 | 24.44° C | 76% | - | 0 mm | - | - | - |
| 1788154230 | 23.89° C | 77% | - | 0 mm | - | - | - |
| 1788153630 | 23.89° C | 76% | - | 0 mm | - | - | - |
| 1788153030 | 24.44° C | 74% | - | 0 mm | - | - | - |
| 1788152430 | 24.44° C | 76% | - | 0 mm | - | - | - |
| 1788151830 | 24.44° C | 73% | - | 0 mm | - | - | - |
| 1788151230 | 24.44° C | 75% | - | 0 mm | - | - | - |
| 1788150630 | 23.33° C | 78% | - | 0 mm | - | - | - |
| 1788150030 | 23.33° C | 80% | - | 0 mm | - | - | - |
| 1788149430 | 23.33° C | 81% | - | 0 mm | - | - | - |
| 1788148833 | 23.89° C | 77% | - | 0 mm | - | - | - |
| 1788148230 | 23.89° C | 76% | - | 0 mm | - | - | - |
* Rain latest hour (hover to see other rain measurements)
** Current wind speed in m/s (hover to see current wind gust speed)